Regional Weather Roundup
Issued by NWS

Home | Current Version | Previous Version | Graphics & Text | Print | Product List | Glossary On
Versions: 1 2 3 4 5 6 7 8 9 10 11 12 13 14 15 16 17 18 19 20 21 22 23 24 25 26 27 28 29 30 31 32 33 34 35 36 37 38 39 40 41 42 43 44 45 46 47 48 49 50
257
ASUS43 KMKX 230159
RWRWI

WISCONSIN REGIONAL WEATHER ROUNDUP
NATIONAL WEATHER SERVICE MILWAUKEE/SULLIVAN WI
800 PM CST THU FEB 22 2018

NOTE: "FAIR" INDICATES FEW OR NO CLOUDS BELOW 12,000 FEET WITH NO
SIGNIFICANT WEATHER AND/OR OBSTRUCTIONS TO VISIBILITY.

WIZ001-002-006>008-014>016-023>028-230300-
NORTHWEST WISCONSIN

CITY           SKY/WX    TMP DP  RH WIND       PRES   REMARKS
SUPERIOR ARPT  CLOUDY    23  16  73 NE8       30.41F WCI  14
ASHLAND        CLOUDY    20  14  77 NE5       30.42F WCI  13
HAYWARD        FLURRIES  30  15  53 SE10G20   30.37F WCI  21
SIREN          FLURRIES  28  13  54 SE7       30.36F WCI  21
CUMBERLAND     LGT SNOW  27  16  63 E8        30.35F WCI  18
RICE LAKE      SNOW      26  21  81 E9        30.37F VSB 1/2 WCI  17
CHETEK         LGT SNOW  25  22  89 E12       30.36F VSB 1   WCI  14
LADYSMITH      LGT SNOW  28  22  79 E10       30.39F WCI  18
EAU CLAIRE     LGT SNOW  26  23  88 E12       30.34F VSB 1   WCI  16
MENOMONIE      LGT SNOW  26  24  90 E10       30.35F WCI  17
NEW RICHMOND   LGT SNOW  25  20  79 E10       30.33F WCI  15
OSCEOLA        FLURRIES  28  19  69 E10       30.36F WCI  18
$$

WIZ003>005-009-010-017-018-230300-
NORTH CENTRAL WISCONSIN

CITY           SKY/WX    TMP DP  RH WIND       PRES   REMARKS
MANITOWISH WTR CLOUDY    28  11  47 SE6       30.39F WCI  22
ARBOR VITAE    CLOUDY    32  15  50 SE7       30.40F WCI  25
WOODRUFF       CLOUDY    32  15  50 SE7       30.40F WCI  25
RHINELANDER    CLOUDY    28  16  60 E10       30.39F WCI  19
EAGLE RIVER    MOCLDY    27  12  53 SE7       30.40F WCI  20
LAND O LAKES   MOCLDY    28  12  51 SE5       30.42F WCI  23
PHILLIPS       CLOUDY    28  13  54 SE7       30.37F WCI  20
TOMAHAWK       CLOUDY    28  13  53 E3        30.40F
MEDFORD        FLURRIES  26  15  65 E13G18    30.38F WCI  15
MERRILL        CLOUDY    28  13  54 SE8       30.42F WCI  20
$$

WIZ029-030-035-036-043>047-230300-
CENTRAL WISCONSIN

CITY           SKY/WX    TMP DP  RH WIND       PRES   REMARKS
WAUSAU         LGT SNOW  25  21  85 E10       30.38F FOG     WCI  15
MOSINEE        CLOUDY    25  21  86 NE14      30.39F WCI  13
MARSHFIELD     CLOUDY    26  20  77 E14       30.36F WCI  14
STEVENS POINT  CLOUDY    26  18  71 E12G18    30.41F WCI  16
WAUPACA        CLOUDY    31  22  67 NE9       30.43F WCI  23
WAUTOMA        CLOUDY    30  22  72 E13       30.40F WCI  20
WISC RAPIDS    FLURRIES  28  18  66 E13       30.39F WCI  17
CAMP DOUGLAS   CLOUDY    30  23  74 E10       30.37F WCI  21
$$

WIZ011>013-019>022-031-037>040-048>050-230300-
NORTHEAST WISCONSIN

CITY           SKY/WX    TMP DP  RH WIND       PRES   REMARKS
ANTIGO         CLOUDY    25  16  69 E12       30.41F WCI  14
SHAWANO        CLOUDY    30  22  72 E8        30.47S WCI  23
OCONTO         CLOUDY    28  23  81 NE7       30.49F WCI  21
STURGEON BAY   CLOUDY    31  26  82 E6        30.48F WCI  25
GREEN BAY      CLOUDY    30  24  78 NE12      30.46F WCI  20
MANITOWOC      CLOUDY    33  28  81 NE5       30.44F WCI  29
APPLETON       CLOUDY    28  21  74 E14       30.42F WCI  17
CLINTONVILLE   CLOUDY    29  19  66 E12       30.45F WCI  20
OSHKOSH        CLOUDY    30  25  81 NE8       30.41F WCI  22
$$

WIZ032>034-041-042-053>061-230300-
SOUTHWEST WISCONSIN

CITY           SKY/WX    TMP DP  RH WIND       PRES   REMARKS
LA CROSSE      CLOUDY    30  25  81 E5        30.34F WCI  25
SPARTA         CLOUDY    29  25  83 E10G16    30.37F WCI  20
VIROQUA        CLOUDY    28  28 100 E15       30.32F WCI  17
BOSCOBEL       CLOUDY    32  31  96 E3        30.36R FOG
PRAIRIE DU CHI CLOUDY    32  30  92 E6        30.34F FOG     WCI  26
PLATTEVILLE    NOT AVBL
$$

WIZ056-057-062-063-064-067-068-230300-
SOUTH CENTRAL WISCONSIN

CITY           SKY/WX    TMP DP  RH WIND       PRES   REMARKS
REEDSBURG      CLOUDY    29  29  99 E6        30.36F FOG     WCI  23
BARABOO/DELLS  CLOUDY    30  26  84 E9        30.38F FOG     WCI  22
LONE ROCK      FOG       32  30  93 E16       30.36F VSB 1   WCI  21
MINERAL POINT  CLOUDY    32  32 100 E14       30.33F WCI  22
MADISON        CLOUDY    31  29  92 E10       30.37F FOG     WCI  22
MIDDLETON      CLOUDY    32  31  98 E7        30.38F WCI  26
WATERTOWN      CLOUDY    31  31 100 E10       30.37F FOG     WCI  23
MONROE         CLOUDY    32  32 100 E13       30.33F WCI  22
JANESVILLE     CLOUDY    34  34 100 E12G17    30.35F WCI  25
$$

WIZ051-052-058>065-066-070>072-230300-
SOUTHEAST WISCONSIN

CITY           SKY/WX    TMP DP  RH WIND       PRES   REMARKS
MILWAUKEE      CLOUDY    35  31  85 NE13      30.40F WCI  26
WAUKESHA       CLOUDY    30  27  86 E13       30.40F WCI  20
MILWAUKEE/TIMM CLOUDY    34  27  75 E8        30.41F WCI  27
RACINE         CLOUDY    36  30  79 E14       30.41F WCI  27
BURLINGTON     CLOUDY    34  29  82 E8        30.38F WCI  27
KENOSHA        CLOUDY    37  30  75 E17       30.38F WCI  27
FOND DU LAC    CLOUDY    32  24  72 E8        30.40F WCI  25
SHEBOYGAN      CLOUDY    33  30  88 E9        30.42F WCI  25
WEST BEND      CLOUDY    32  30  93 E9        30.42F WCI  24
JUNEAU         MIX PCPN  30  28  91 E10       30.40F WCI  21
$$

LSZ147-162-230300-
LAKE SUPERIOR

STATION/POSITION TIME  TEMP    WIND        PRES    WAVE
                       AIR SEA DIR/SP/G            HT/PER
                 (UTC) (F)     (DEG/KT/KT) (MB)    (FT/S)
DEVILS ISLAND    0100   24     100/  5/  6 1032.7F
SAXON HARBOR     0140   22        CALM     1029.8F
$$

LMZ867-665-643>646-230300-
LAKE MICHIGAN

STATION/POSITION TIME  TEMP    WIND        PRES    WAVE
                       AIR SEA DIR/SP/G            HT/PER
                 (UTC) (F)     (DEG/KT/KT) (MB)    (FT/S)
NORTHPORT PIER   0140   31                 1032.8F
KEWAUNEE LAKESHO 0130   33      50/  7/ 10 1031.3F
SHEBOYGAN LAKESH 0100   34      50/ 13/ 14 1032.3F
PORT WASHINGTON  0130   34      60/ 10/ 12 1031.5F
MILWAUKEE LAKESH 0130   34      50/ 12/ 13   N/A
KENOSHA   LAKESH 0100   36      80/ 12/ 13 1029.8
$$

TC  - TEMPERATURE IN CELSIUS
VSB - VISIBILITY IN STATUTE MILES
WCI - WIND CHILL INDEX
HX  - HEAT INDEX





USA.gov is the U.S. government's official web portal to all federal, state and local government web resources and services.